Time,TemperatureF,DewpointF,PressureIn,WindDirection,WindDirectionDegrees,WindSpeedMPH,WindSpeedGustMPH,Humidity,HourlyPrecipIn,Conditions,Clouds,dailyrainin,SolarRadiationWatts/m^2,SoftwareType,DateUTC
2013-12-04 00:06:00,10.7,-3.0,30.53,NE,38,4.0,4.0,54,0.00,,,0.00,0,weatherlink.com 1.10,2013-12-04 07:06:00,
2013-12-04 00:21:00,10.1,-5.0,30.54,NNW,347,4.0,6.0,51,0.00,,,0.00,0,weatherlink.com 1.10,2013-12-04 07:21:00,
2013-12-04 00:36:00,10.0,-4.0,30.54,NE,48,3.0,5.0,54,0.00,,,0.00,0,weatherlink.com 1.10,2013-12-04 07:36:00,
2013-12-04 00:51:00,9.6,-3.0,30.54,NE,38,3.0,4.0,57,0.00,,,0.00,0,weatherlink.com 1.10,2013-12-04 07:51:00,
2013-12-04 01:06:00,9.1,-4.0,30.54,NE,38,4.0,5.0,56,0.00,,,0.00,0,weatherlink.com 1.10,2013-12-04 08:06:00,
2013-12-04 01:21:00,8.6,-4.0,30.54,NNE,27,3.0,6.0,58,0.00,,,0.00,0,weatherlink.com 1.10,2013-12-04 08:21:00,
2013-12-04 01:36:00,8.9,-4.0,30.54,NE,38,0.0,5.0,57,0.00,,,0.00,0,weatherlink.com 1.10,2013-12-04 08:36:00,
2013-12-04 01:51:00,10.1,-5.0,30.54,ESE,123,0.0,4.0,50,0.00,,,0.00,0,weatherlink.com 1.10,2013-12-04 08:51:00,
2013-12-04 02:06:00,9.1,-4.0,30.53,SE,140,0.0,2.0,56,0.00,,,0.00,0,weatherlink.com 1.10,2013-12-04 09:06:00,
2013-12-04 02:21:00,8.8,-2.0,30.53,ENE,73,1.0,2.0,61,0.00,,,0.00,0,weatherlink.com 1.10,2013-12-04 09:21:00,
2013-12-04 02:36:00,7.5,-1.0,30.54,ENE,58,0.0,1.0,67,0.00,,,0.00,0,weatherlink.com 1.10,2013-12-04 09:36:00,
2013-12-04 02:52:00,8.5,-4.0,30.54,ENE,62,3.0,5.0,56,0.00,,,0.00,0,weatherlink.com 1.10,2013-12-04 09:52:00,
2013-12-04 03:07:00,9.0,-5.0,30.54,NE,43,3.0,7.0,54,0.00,,,0.00,0,weatherlink.com 1.10,2013-12-04 10:07:00,
2013-12-04 03:22:00,8.7,-5.0,30.54,NE,38,4.0,6.0,55,0.00,,,0.00,0,weatherlink.com 1.10,2013-12-04 10:22:00,
2013-12-04 03:37:00,8.6,-5.0,30.54,NNE,12,3.0,7.0,54,0.00,,,0.00,0,weatherlink.com 1.10,2013-12-04 10:37:00,
2013-12-04 03:52:00,8.5,-5.0,30.54,NNE,14,2.0,6.0,55,0.00,,,0.00,0,weatherlink.com 1.10,2013-12-04 10:52:00,
2013-12-04 04:07:00,8.0,-5.0,30.54,NE,38,6.0,6.0,56,0.00,,,0.00,0,weatherlink.com 1.10,2013-12-04 11:07:00,
2013-12-04 04:22:00,8.3,-5.0,30.54,NNE,14,6.0,7.0,56,0.00,,,0.00,0,weatherlink.com 1.10,2013-12-04 11:22:00,
2013-12-04 04:37:00,7.9,-3.0,30.54,West,281,0.0,6.0,60,0.00,,,0.00,0,weatherlink.com 1.10,2013-12-04 11:37:00,
2013-12-04 04:52:00,5.5,-3.0,30.54,West,281,0.0,0.0,69,0.00,,,0.00,0,weatherlink.com 1.10,2013-12-04 11:52:00,
2013-12-04 05:07:00,4.9,-2.0,30.55,West,281,0.0,1.0,73,0.00,,,0.00,0,weatherlink.com 1.10,2013-12-04 12:07:00,
2013-12-04 05:22:00,4.6,-2.0,30.55,West,281,0.0,0.0,73,0.00,,,0.00,0,weatherlink.com 1.10,2013-12-04 12:22:00,
2013-12-04 05:37:00,4.6,-2.0,30.55,West,281,0.0,1.0,73,0.00,,,0.00,0,weatherlink.com 1.10,2013-12-04 12:37:00,
2013-12-04 05:52:00,4.6,-2.0,30.56,West,281,0.0,1.0,73,0.00,,,0.00,0,weatherlink.com 1.10,2013-12-04 12:52:00,
2013-12-04 06:07:00,4.7,-2.0,30.56,NW,305,2.0,5.0,73,0.00,,,0.00,0,weatherlink.com 1.10,2013-12-04 13:07:00,
2013-12-04 06:23:00,5.4,-2.0,30.57,NW,310,2.0,3.0,72,0.00,,,0.00,0,weatherlink.com 1.10,2013-12-04 13:23:00,
2013-12-04 06:38:00,5.0,-2.0,30.57,NNW,329,1.0,4.0,74,0.00,,,0.00,0,weatherlink.com 1.10,2013-12-04 13:38:00,
2013-12-04 06:53:00,5.2,-2.0,30.58,NW,314,1.0,4.0,73,0.00,,,0.00,0,weatherlink.com 1.10,2013-12-04 13:53:00,
2013-12-04 07:08:00,5.1,-2.0,30.58,NNW,327,1.0,1.0,73,0.00,,,0.00,0,weatherlink.com 1.10,2013-12-04 14:08:00,
2013-12-04 07:23:00,5.3,-2.0,30.59,NW,318,1.0,3.0,73,0.00,,,0.00,0,weatherlink.com 1.10,2013-12-04 14:23:00,
2013-12-04 07:38:00,5.0,-2.0,30.59,NNW,327,1.0,3.0,73,0.00,,,0.00,0,weatherlink.com 1.10,2013-12-04 14:38:00,
2013-12-04 07:53:00,5.2,-2.0,30.60,NW,324,1.0,2.0,72,0.00,,,0.00,0,weatherlink.com 1.10,2013-12-04 14:53:00,
2013-12-04 08:08:00,5.2,-2.0,30.60,NW,308,1.0,2.0,72,0.00,,,0.00,5,weatherlink.com 1.10,2013-12-04 15:08:00,
2013-12-04 08:23:00,5.2,-2.0,30.60,NW,304,0.0,1.0,72,0.00,,,0.00,11,weatherlink.com 1.10,2013-12-04 15:23:00,
2013-12-04 08:38:00,5.0,-1.0,30.60,WNW,292,0.0,4.0,75,0.00,,,0.00,23,weatherlink.com 1.10,2013-12-04 15:38:00,
2013-12-04 08:53:00,5.2,-1.0,30.61,WNW,289,0.0,2.0,75,0.00,,,0.00,42,weatherlink.com 1.10,2013-12-04 15:53:00,
2013-12-04 09:08:00,5.7,-1.0,30.61,NNW,327,1.0,1.0,75,0.00,,,0.00,63,weatherlink.com 1.10,2013-12-04 16:08:00,
2013-12-04 09:23:00,6.3,0.0,30.61,SE,124,0.0,1.0,74,0.00,,,0.00,120,weatherlink.com 1.10,2013-12-04 16:23:00,
2013-12-04 09:39:00,7.0,0.0,30.61,WNW,286,1.0,2.0,72,0.00,,,0.00,178,weatherlink.com 1.10,2013-12-04 16:39:00,
2013-12-04 09:54:00,7.8,1.0,30.61,WNW,287,0.0,1.0,72,0.00,,,0.00,200,weatherlink.com 1.10,2013-12-04 16:54:00,
2013-12-04 10:09:00,7.8,0.0,30.62,WNW,283,1.0,4.0,69,0.00,,,0.00,153,weatherlink.com 1.10,2013-12-04 17:09:00,
2013-12-04 10:24:00,7.8,0.0,30.62,WNW,284,3.0,4.0,69,0.00,,,0.00,155,weatherlink.com 1.10,2013-12-04 17:24:00,
2013-12-04 10:39:00,8.1,0.0,30.63,NW,311,2.0,4.0,70,0.00,,,0.00,91,weatherlink.com 1.10,2013-12-04 17:39:00,
2013-12-04 10:54:00,8.0,0.0,30.63,NW,325,2.0,4.0,71,0.00,,,0.00,98,weatherlink.com 1.10,2013-12-04 17:54:00,
2013-12-04 11:09:00,9.2,2.0,30.62,North,1,0.0,5.0,71,0.00,,,0.00,304,weatherlink.com 1.10,2013-12-04 18:09:00,
2013-12-04 11:24:00,10.0,1.0,30.62,NNW,333,1.0,6.0,67,0.00,,,0.00,306,weatherlink.com 1.10,2013-12-04 18:24:00,
2013-12-04 11:39:00,10.0,1.0,30.62,NNW,338,3.0,5.0,66,0.00,,,0.00,250,weatherlink.com 1.10,2013-12-04 18:39:00,
2013-12-04 11:54:00,10.7,1.0,30.61,NW,319,4.0,5.0,66,0.00,,,0.00,329,weatherlink.com 1.10,2013-12-04 18:54:00,
2013-12-04 12:09:00,11.2,-1.0,30.61,NW,324,2.0,4.0,58,0.00,,,0.00,209,weatherlink.com 1.10,2013-12-04 19:09:00,
2013-12-04 12:24:00,11.0,-1.0,30.60,NNW,328,3.0,5.0,60,0.00,,,0.00,218,weatherlink.com 1.10,2013-12-04 19:24:00,
2013-12-04 12:39:00,11.2,1.0,30.60,NNW,338,4.0,6.0,63,0.00,,,0.00,195,weatherlink.com 1.10,2013-12-04 19:39:00,
2013-12-04 12:54:00,11.1,1.0,30.59,NNW,339,2.0,6.0,63,0.00,,,0.00,156,weatherlink.com 1.10,2013-12-04 19:54:00,
2013-12-04 13:10:00,11.6,2.0,30.59,NNW,336,3.0,6.0,65,0.00,,,0.00,200,weatherlink.com 1.10,2013-12-04 20:10:00,
2013-12-04 13:25:00,12.2,-1.0,30.59,NW,308,4.0,6.0,56,0.00,,,0.00,183,weatherlink.com 1.10,2013-12-04 20:25:00,
2013-12-04 13:40:00,12.9,-2.0,30.59,North,351,3.0,5.0,52,0.00,,,0.00,338,weatherlink.com 1.10,2013-12-04 20:40:00,
2013-12-04 13:55:00,13.5,-1.0,30.58,NW,325,0.0,5.0,52,0.00,,,0.00,325,weatherlink.com 1.10,2013-12-04 20:55:00,
2013-12-04 14:10:00,13.9,-1.0,30.58,WNW,289,3.0,4.0,51,0.00,,,0.00,308,weatherlink.com 1.10,2013-12-04 21:10:00,
2013-12-04 14:25:00,14.9,-2.0,30.57,NNW,347,1.0,3.0,48,0.00,,,0.00,288,weatherlink.com 1.10,2013-12-04 21:25:00,
2013-12-04 14:40:00,14.6,-2.0,30.57,WSW,250,5.0,6.0,49,0.00,,,0.00,264,weatherlink.com 1.10,2013-12-04 21:40:00,
2013-12-04 14:55:00,14.6,-1.0,30.57,WNW,293,3.0,7.0,50,0.00,,,0.00,239,weatherlink.com 1.10,2013-12-04 21:55:00,
2013-12-04 15:10:00,14.0,-1.0,30.57,WNW,285,7.0,10.0,51,0.00,,,0.00,207,weatherlink.com 1.10,2013-12-04 22:10:00,
2013-12-04 15:25:00,13.8,-1.0,30.57,NW,314,8.0,10.0,51,0.00,,,0.00,171,weatherlink.com 1.10,2013-12-04 22:25:00,
2013-12-04 15:40:00,13.7,0.0,30.57,West,281,8.0,10.0,54,0.00,,,0.00,132,weatherlink.com 1.10,2013-12-04 22:40:00,
2013-12-04 15:55:00,13.4,-1.0,30.57,WNW,285,8.0,9.0,53,0.00,,,0.00,93,weatherlink.com 1.10,2013-12-04 22:55:00,
2013-12-04 16:10:00,12.5,-1.0,30.57,WNW,290,5.0,10.0,54,0.00,,,0.00,58,weatherlink.com 1.10,2013-12-04 23:10:00,
2013-12-04 16:25:00,11.4,-2.0,30.57,WNW,295,2.0,6.0,55,0.00,,,0.00,14,weatherlink.com 1.10,2013-12-04 23:25:00,
2013-12-04 16:41:00,10.8,-2.0,30.57,NW,307,2.0,5.0,56,0.00,,,0.00,9,weatherlink.com 1.10,2013-12-04 23:41:00,
2013-12-04 16:56:00,10.4,-1.0,30.57,NNW,337,2.0,4.0,60,0.00,,,0.00,0,weatherlink.com 1.10,2013-12-04 23:56:00,
2013-12-04 17:11:00,9.9,-2.0,30.57,NNW,336,0.0,4.0,60,0.00,,,0.00,0,weatherlink.com 1.10,2013-12-05 00:11:00,
2013-12-04 17:26:00,9.5,-2.0,30.57,NNW,345,1.0,4.0,60,0.00,,,0.00,0,weatherlink.com 1.10,2013-12-05 00:26:00,
2013-12-04 17:41:00,8.8,-2.0,30.57,NNE,31,2.0,4.0,62,0.00,,,0.00,0,weatherlink.com 1.10,2013-12-05 00:41:00,
2013-12-04 17:56:00,8.3,-2.0,30.58,NNE,16,0.0,3.0,63,0.00,,,0.00,0,weatherlink.com 1.10,2013-12-05 00:56:00,
2013-12-04 18:11:00,8.4,-2.0,30.58,NNW,348,2.0,4.0,63,0.00,,,0.00,0,weatherlink.com 1.10,2013-12-05 01:11:00,
2013-12-04 18:26:00,8.2,-2.0,30.59,NNW,328,2.0,4.0,64,0.00,,,0.00,0,weatherlink.com 1.10,2013-12-05 01:26:00,
2013-12-04 18:41:00,7.5,-2.0,30.59,NNE,24,1.0,4.0,65,0.00,,,0.00,0,weatherlink.com 1.10,2013-12-05 01:41:00,
2013-12-04 18:56:00,7.7,-3.0,30.59,NNE,21,3.0,4.0,63,0.00,,,0.00,0,weatherlink.com 1.10,2013-12-05 01:56:00,
2013-12-04 19:11:00,7.5,-2.0,30.59,NNE,19,0.0,3.0,65,0.00,,,0.00,0,weatherlink.com 1.10,2013-12-05 02:11:00,
2013-12-04 19:26:00,7.2,-2.0,30.59,North,350,1.0,4.0,65,0.00,,,0.00,0,weatherlink.com 1.10,2013-12-05 02:26:00,
2013-12-04 19:41:00,6.7,-2.0,30.59,North,349,4.0,5.0,67,0.00,,,0.00,0,weatherlink.com 1.10,2013-12-05 02:41:00,
2013-12-04 19:56:00,6.3,-3.0,30.59,North,349,3.0,7.0,67,0.00,,,0.00,0,weatherlink.com 1.10,2013-12-05 02:56:00,
2013-12-04 20:12:00,5.7,-2.0,30.60,North,11,4.0,6.0,69,0.00,,,0.00,0,weatherlink.com 1.10,2013-12-05 03:12:00,
2013-12-04 20:27:00,5.1,-2.0,30.60,North,355,4.0,7.0,71,0.00,,,0.00,0,weatherlink.com 1.10,2013-12-05 03:27:00,
2013-12-04 20:42:00,5.2,-3.0,30.61,NNW,341,3.0,7.0,70,0.00,,,0.00,0,weatherlink.com 1.10,2013-12-05 03:42:00,
2013-12-04 20:57:00,5.1,-3.0,30.60,North,7,3.0,7.0,70,0.00,,,0.00,0,weatherlink.com 1.10,2013-12-05 03:57:00,
2013-12-04 21:12:00,5.0,-3.0,30.61,North,9,7.0,8.0,70,0.00,,,0.00,0,weatherlink.com 1.10,2013-12-05 04:12:00,
2013-12-04 21:27:00,4.5,-3.0,30.61,North,6,4.0,8.0,71,0.00,,,0.00,0,weatherlink.com 1.10,2013-12-05 04:27:00,
2013-12-04 21:42:00,4.4,-3.0,30.61,NNE,21,3.0,10.0,71,0.00,,,0.00,0,weatherlink.com 1.10,2013-12-05 04:42:00,
2013-12-04 21:57:00,4.1,-3.0,30.61,North,359,5.0,7.0,71,0.00,,,0.00,0,weatherlink.com 1.10,2013-12-05 04:57:00,
2013-12-04 22:12:00,3.8,-4.0,30.62,North,357,6.0,8.0,71,0.00,,,0.00,0,weatherlink.com 1.10,2013-12-05 05:12:00,
2013-12-04 22:27:00,3.6,-4.0,30.62,North,4,4.0,7.0,72,0.00,,,0.00,0,weatherlink.com 1.10,2013-12-05 05:27:00,
2013-12-04 22:42:00,3.3,-4.0,30.62,NNE,18,2.0,6.0,72,0.00,,,0.00,0,weatherlink.com 1.10,2013-12-05 05:42:00,
2013-12-04 22:57:00,3.7,-3.0,30.62,ENE,57,0.0,2.0,74,0.00,,,0.00,0,weatherlink.com 1.10,2013-12-05 05:57:00,
2013-12-04 23:12:00,3.4,-3.0,30.62,ENE,57,0.0,0.0,73,0.00,,,0.00,0,weatherlink.com 1.10,2013-12-05 06:12:00,
2013-12-04 23:27:00,2.9,-4.0,30.63,ENE,57,0.0,1.0,74,0.00,,,0.00,0,weatherlink.com 1.10,2013-12-05 06:27:00,
2013-12-04 23:43:00,3.0,-4.0,30.63,North,3,0.0,2.0,74,0.00,,,0.00,0,weatherlink.com 1.10,2013-12-05 06:43:00,
2013-12-04 23:58:00,2.7,-4.0,30.62,NNE,18,1.0,3.0,74,0.00,,,0.00,0,weatherlink.com 1.10,2013-12-05 06:58:00,